www.pogodaiklimat.ru

Погода и климат >> Архив погоды >> Россия >> Якутия >> Себян-Кюель


ПОГОДА в Себян-Кюеле

  • Прогноз погоды в Себян-Кюеле
  • Монитор погоды в Себян-Кюеле
  • Климат города

АРХИВ ПОГОДЫ в Себян-Кюеле

Время (UTC), дата Ветер
(напр.,м/с)
 
Видим.   Явления Облачность Т
(С)
Тd
(С)
f
(%)
Тe
(С)
Тes
(С)
Комфортность P
(гПа)
Po
(гПа)
Тmin
(С)
Tmax
(С)
R
(мм)
R24
(мм)
S
(см)
15 17.06 штиль 0 50 км ясно +14.6 +6.8 59 +14 +14 1006.4 918.4
18 17.06 штиль 0 50 км ясно +10.6 +6.8 77 +10 +10 1009.1 919.7
21 17.06 В 1 50 км ясно +13.2 +7.6 69 +13 +16 1009.1 920.5
00 18.06 З 1 50 км 10/5 1000 м
[Cb cap Ac trans Ci fib]
+18.5 +6.4 45 +20 +22 1007.5 920.7 +10.2
03 18.06 ЮЗ 3 50 км {ливн. осадки} 8/6 1000 м
[Cb cap Ac trans Ci fib]
+21.2 +7.0 40 +22 +25 комфорт 1006.9 920.9
06 18.06 ЮЗ 3 50 км {ливн. осадки} 8/6 1000 м
[Cb cap Ac trans Ci fib]
+22.8 +2.1 26 +22 +25 комфорт 1005.7 920.2
09 18.06 штиль 0 50 км в посл. час ливневой дождь ?/? +22.3 +6.7 36 +23 +23 комфорт 1005.6 920.0
12 18.06 В 4 10 км слабый ливневой дождь 10/8 1170 м
[Cb cap Ci fib]
+12.3 +11.5 95 +10 +10 1010.6 921.9 +24.7 1
15 18.06 штиль 0 50 км {ливн. осадки} 10/4 1000 м
[Sc diur, vesp Ci fib]
+10.0 +8.4 90 +9 +9 1012.1 922.5
18 18.06 штиль 0 20 км {ливн. осадки} 10/10 360 м
[St]
+7.5 +5.8 89 +7 +7 1013.0 922.5
21 18.06 штиль 0 20 км 10/10 240 м
[St]
+6.9 +5.6 91 +6 +6 1012.7 922.0
00 19.06 СВ 1 50 км 6/0 2000 м
[Ac trans]
+10.0 +7.7 86 +10 +16 1010.3 920.6 +6.6 0.0
03 19.06 ЮЗ 5 50 км 6/0 2000 м
[Ac trans]
+20.3 +5.9 39 +21 +25 комфорт 1004.5 918.3
06 19.06 З 5 50 км 10/0 2000 м
[Ac trans]
+23.2 +0.6 22 +22 +25 комфорт 1002.9 917.6
09 19.06 ЮЗ 3 50 км 10/0 2000 м
[Ac trans]
+22.0 +4.1 31 +22 +23 комфорт 1004.1 918.4
12 19.06 СЗ 1 50 км 8/0 2000 м
[Ac trans]
+14.6 +1.3 40 +15 +16 1007.1 919.0 +23.4
15 19.06 ЮЗ 1 50 км 8/0 2000 м
[Ac trans]
+10.4 +4.6 67 +10 +10 1009.1 919.7
18 19.06 З 1 50 км 8/0 2000 м
[Ac trans]
+8.4 +4.3 75 +8 +8 1009.9 919.8
21 19.06 штиль 0 50 км 10/0 2000 м
[Ac trans]
+9.6 +6.1 79 +9 +10 1008.8 919.1
00 20.06 ЮЗ 4 50 км 10/0 1500 м
[As op]
+11.5 +3.4 57 +10 +11 1007.6 918.7 +6.4
03 20.06 ЮЗ 1 50 км 10/10 1500 м
[Sc]
+12.4 +4.0 57 +13 +13 1005.9 917.4
06 20.06 ЮЗ 5 50 км 10/8 1000 м
[Sc Ac trans Ci fib]
+14.5 +3.8 49 +13 +14 1003.2 915.6
09 20.06 Ю 3 50 км 10/10 1230 м
[Sc]
+13.8 +5.0 55 +13 +13 1002.6 914.9
12 20.06 штиль 0 50 км 10/10 1260 м
[Sc]
+12.2 +6.5 68 +12 +12 1002.6 914.4 +15.4
15 20.06 штиль 0 50 км {ливн. осадки} 10/8 1200 м
[Cb cap Ac trans Ci fib]
+10.0 +6.8 80 +9 +9 1003.6 914.7
18 20.06 С 2 50 км {ливн. осадки} 10/10 720 м
[Cb cap]
+8.3 +3.6 72 +7 +7 1007.3 917.5
21 20.06 СВ 1 50 км 10/10 1000 м
[Sc]
+7.9 +2.9 71 +7 +7 1009.3 919.2
00 21.06 В 1 50 км 8/8 1000 м
[Sc]
+11.0 +3.0 58 +11 +13 1009.5 919.9 +7.6 0.2
03 21.06 В 2 50 км 6/6 1000 м
[Sc]
+13.4 +2.3 47 +13 +18 1008.2 919.7
06 21.06 ЮВ 1 50 км 6/6 1000 м
[Sc]
+15.9 +1.9 39 +17 +21 1005.7 918.2
09 21.06 В 1 50 км 4/0 2000 м
[Ac trans]
+16.8 +1.9 37 +18 +21 1003.8 916.7
12 21.06 штиль 0 50 км ясно +14.0 +3.0 47 +14 +14 1004.2 916.2 +16.8
15 21.06 штиль 0 50 км 6/0
[Ac trans]
+9.4 +5.6 77 +9 +9 1006.1 916.6
18 21.06 ЮЗ 1 50 км ясно +6.4 +3.3 81 +5 +6 1007.1 916.6
21 21.06 штиль 0 50 км 4/0
[Ac trans]
+7.2 +2.1 70 +7 +9 1006.5 916.3
00 22.06 штиль 0 50 км 8/3 1000 м
[Sc Ac trans Ci fib]
+15.6 +4.8 49 +16 +21 1003.1 915.8 +6.0
03 22.06 штиль 0 50 км 5/3 1000 м
[Cu med, cong Ac trans Ci fib]
+22.7 +8.1 39 +24 +34 комфорт 999.9 915.0
06 22.06 Ю 2 50 км 6/6 1000 м
[Cu med, cong]
+24.6 +8.4 36 +25 +29 комфорт 998.4 914.1
09 22.06 З 3 50 км 10/6 1000 м
[Cu med, cong Ci fib]
+24.8 +8.6 36 +25 +26 комфорт 998.5 914.3
12 22.06 штиль 0 50 км 4/0
[Ci fib]
+23.2 +9.7 42 +25 +25 комфорт 998.9 914.2 +26.3
15 22.06 штиль 0 50 км 10/0
[Ci fib]
+11.8 +9.2 84 +11 +11 1003.2 914.9
18 22.06 штиль 0 50 км 5/0
[Ci fib]
+8.6 +7.3 92 +8 +8 1004.3 914.9
21 22.06 штиль 0 50 км 5/0
[Ac trans Ci fib]
+15.4 +10.3 72 +15 +18 1001.4 914.4
00 23.06 штиль 0 50 км 8/0 2000 м
[Ac trans Ci fib]
+20.8 +5.9 38 +21 +29 комфорт 998.7 913.1 +8.3
03 23.06 Ю 3 50 км 8/0
[Ci fib]
+23.6 +10.4 43 +25 +33 комфорт 996.7 912.0
06 23.06 З 6 50 км 10/0
[Cs]
+27.8 +7.3 27 +27 +30 жарко 994.6 911.2
09 23.06 ЮЗ 3 50 км 10/0
[Cs]
+27.6 +8.6 30 +27 +30 жарко 994.0 910.7
12 23.06 Ю 1 50 км 10/0
[Cs]
+26.0 +12.3 43 +28 +28 жарко 993.8 910.0 +27.8
15 23.06 ЮЗ 2 50 км 10/0
[Cs]
+18.8 +12.2 65 +20 +20 995.4 909.6
18 23.06 ЮЗ 1 50 км 10/0
[Cs]
+14.8 +10.0 73 +15 +15 997.8 910.6
21 23.06 штиль 0 50 км 10/0
[Ci fib]
+20.0 +9.3 50 +21 +24 комфорт 998.0 912.3
00 24.06 СВ 6
{16}
50 км 8/6 1500 м
[Cb cap Ac trans Ci fib]
+12.8 +7.3 69 +10 +11 1003.2 915.2 +12.8
03 24.06 СВ 4 10 км слабый дождь 10/10 870 м
[Sc]
+6.1 +2.4 77 +2 +2 1011.3 920.4
06 24.06 В 2 50 км {дождь} 10/10 1500 м
[Sc]
+7.7 +1.5 65 +6 +6 1012.3 921.8
09 24.06 СВ 2 50 км 9/9 960 м
[Sc]
+8.8 +3.2 68 +7 +8 1012.6 922.5
12 24.06 В 3 50 км 10/10 750 м
[Sc]
+7.8 +3.8 76 +5 +5 1014.3 923.7 +22.0 0.0

 

Местоположение метеостанции Себян-Кюель (Якутия, Россия): широта 65.30 долгота 130.00 высота над уровнем моря 777 м.

В архиве по умолчанию представлена погода в Себян-Кюеле за последнюю неделю. Архивные данные за месяц целиком и за предыдущие месяцы, начиная с января 2011 года, Вы можете получить, выбрав интересующий диапазон дат из раскрывающегося списка и нажав кнопку "Ввод!".

Внимание! Время в таблицах - всемирное. Для получения местного времени необходимо прибавить поправку, которая в Себян-Кюеле равна 9 ч.

Смотрите также архив погоды в соседних городах и на ближайших метеорологических станциях:

Погода в Сеген-Кюели (Якутия, Россия) (145 км)
Погода в Екюччю (Якутия, Россия) (179 км)
Погода в Сангаре (Якутия, Россия) (195 км)
Погода в Батамае (Якутия, Россия) (200 км)
Погода в Сого-Хае (Якутия, Россия) (205 км)
Погода в Верхоянском Перевозе (Якутия, Россия) (240 км)
Погода в Иэме (Якутия, Россия) (269 км)
Погода в Бестяхской Звероферме (Якутия, Россия) (274 км)
Погода в Батагай-Алыте (Якутия, Россия) (276 км)
Погода в Намцах (Якутия, Россия) (288 км)

Пояснения к столбцам:

Ветер - указаны скорость ветра в м/с - средняя за 10 мин, порывы в срок и между сроками (в фигурных скобках) и направление, откуда дует ветер: С - северный, СВ - северо-восточный, В - восточный, ЮВ - юго-восточный, Ю - южный, ЮЗ - юго-западный, З - западный, СЗ - северо-западный.
Видимость - горизонтальная дальность видимости в метрах или километрах. При видимости от 1 до 10 км при отсутствии осадков обычно наблюдается дымка, при ухудшении видимости до 1 км и менее - туман. В сухую погоду видимость может ухудшаться дымом, пылью или мглою.
Явления - указаны атмосферные явления, наблюдавшиеся в срок или в последний час перед сроком; фигурными скобками обозначены явления, наблюдавшиеся между сроками (за 1-3 часа до срока); квадратными скобками обозначены град или гололедные отложения с указанием их диаметра в мм.
Облачность - указаны через наклонную черту общая и нижняя облачность в баллах и высота нижней границы облаков в метрах; квадратными скобками обозначены формы облаков: Ci - перистые, Cs - перисто-слоистые, Cc - перисто-кучевые, Ac - высококучевые, As - высокослоистые, Sc - слоисто-кучевые, Ns - слоисто-дождевые, Cu - кучевые, Cb - кучево-дождевые. Подробнее классификацию облаков см. в Атласе облаков (PDF).
T - Температура воздуха - температура, измеренная на высоте 2 м над землей.
Td - Температура точки росы - температура, при понижении до которой содержащийся в воздухе водяной пар достигнет насыщения.
f - Относительная влажность воздуха - влажноcть воздуха, измеренная на высоте 2 м над землей.
Te - Эффективная температура - температура, которую ощущает одетый по сезону человек в тени. Характеристика душности погоды. При расчете учитывается влияние влажности воздуха и скорости ветра на теплоощущения человека.
Tes - Эффективная температура на солнце - температура, которую ощущает человек, с поправкой на солнечный нагрев. Характеристика знойности погоды. Зависит от высоты солнца над горизонтом, облачности и скорости ветра. Ночью, в пасмурную погоду, а также при ветре 12 м/с и более поправка равна нулю.
P - Атмосферное давление - приведенное к уровню моря атмосферное давление.
Po - Атмосферное давление - измеренное на уровне метеостанции атмосферное давление.
Tmin - Минимальная температура - минимум температуры воздуха на высоте 2 м над землей.
Tmax - Максимальная температура - максимум температуры воздуха на высоте 2 м над землей.
R - Количество осадков - Количество выпавших осадков за период времени, мм. При наведении курсора мыши на число - период времени, за который выпало указанное количество осадков.
R24 - Количество осадков - Количество выпавших осадков за 24 часа, мм.
S - Снежный покров - Высота снежного покрова, см. При наведении курсора мыши на число - состояние снежного покрова и степень покрытия местности в баллах.